Starlink 32209

operational
NORAD ID: 60590 Int'l Des: 2024-150 Owner: SPXS Country: US Constellation: starlink
LEOCIRCULAR

Über Starlink 32209

Beschreibung wird geladen...

Live-Position

3D-Globus wird geladen...

Nächste Überflüge

Höhenverlauf

Altitude vs Time

uPlot chart will show altitude changes over time

Zweizeiliger Elementsatz

1 60590U 24150H 25259.69703094 .00000571 00000-0 31413-4 0 9992
2 60590 53.1613 35.1099 0001321 86.0713 274.0439 15.30176819 61401
Epoch: 16. Sept. 2025 • Age: 34 hours

Aktueller Status

Höhe 480.8 km
Geschwindigkeit 7.63 km/s
Subsatellitenpunkt -18.80°S, 172.01°W
Startdatum 20. Aug. 2024
Alter 1 years
Typ internet

Technische Details

Klassifizierung Payload
Masse 730.00 kg
Trockenmasse 700.00 kg
Gesamtmasse 730.00 kg
Länge 0.30 m
Durchmesser 4.10 m
Spannweite 29.00 m
Form Box + pan
Hersteller SPXS
Bus-Typ Starlink V2M
Phasenstatus In Orbit
Besitzer/Staat SPXS/US

Große Konstellationen

Loading constellations...